Tracking 35274 objects as of 11-Sep-2026
HD Live streaming from Space Station
objects crossing your sky now

STARLINK-30367

Track STARLINK-30367 now!
10-day predictions
STARLINK-30367 is classified as:


NORAD ID: 57791
Int'l Code: 2023-134W
Launch date: September 4, 2023
Source: United States (US)
Launch site: AIR FORCE EASTERN TEST RANGE (AFETR)
Your satellite tracking list
Your tracking list is empty




NASA's NSSDC Master Catalog

Two Line Element Set (TLE):
1 57791U 23134W   26253.97261429 -.00000196  00000-0  23985-5 0  9999
2 57791  43.0026 228.0834 0000995 269.9795  90.0942 15.27574380167845
Source of the keplerian elements: AFSPC